Location: Althorst
(53.6379°N, 10.7715°E)
Time: 06:12:37
(UTC+00:00)

Okean 2 Rocket - Pass Details

Date: 10 December 2019
Orbit: 618 x 640 km, 82.5° (Epoch: 21 January)

Event Time Altitude Azimuth Distance (km) Brightness Sun altitude
Rises 16:39:10 0° 356° (N) 2,931 6.4 -14.0°
Reaches altitude 10° 16:41:49 10° 11° (N) 2,023 5.4 -14.3°
Enters shadow 16:44:33 22° 47° (NE) 1,403 4.3 -14.7°
